Zurück zum Katalog

AETHER-7

AktivKommunikationSSO
NORAD 67378·PAYLOAD·🇨🇦 Canada

Gestartet Jan 11, 2026 von Vandenberg Space Force Base

Loading…

Nächste Überflüge (nächste 24 Stunden)

TLE

AktuellSource: Space-Track

Epoche: Sep 14, 2026, 05:22 UTC

1 67378U 26004R   26257.22405826  .00001216  00000-0  14365-3 0  9996
2 67378  97.8076 254.0713 0002895 167.0033 193.1258 14.86476350 36503

Verfolge AETHER-7 in Echtzeit mit AllMySat

Download on the App Store